WetterOnline ( https://www.wetteronline.de )

Wetter aktuell Spessart (in 500m)

Aktuelles Wetter: Neuhütten/Spessart (340m)

6-stündlich | Neueste Meldungen
Ortszeit Temperatur Wetter
Sa, 08.05. 8:00 0.5° C fast wolkenlos
Sa, 08.05. 2:00 -1.3° C wolkenlos
Fr, 07.05. 20:00 8.7° C wolkig
Fr, 07.05. 14:00 3.7° C Regen
Fr, 07.05. 8:00 4.1° C bewölkt
Fr, 07.05. 2:00 5.1° C bedeckt
Do, 06.05. 20:00 6.1° C leichter Regen
Do, 06.05. 14:00 7.3° C bedeckt
Ortszeit Temperatur Wetter
Sa, 08.05. 8:00 0.5° C fast wolkenlos
Sa, 08.05. 7:50 0.5° C fast wolkenlos
Sa, 08.05. 7:40 -0.1° C wolkenlos
Sa, 08.05. 7:30 -0.6° C fast wolkenlos
Sa, 08.05. 7:20 -0.6° C fast wolkenlos
Sa, 08.05. 7:10 -1.2° C leicht bewölkt
Sa, 08.05. 7:00 -1.8° C wolkig
Sa, 08.05. 6:30 -2.0° C wolkig
Sa, 08.05. 6:00 -1.8° C leicht bewölkt
Sa, 08.05. 5:30 -1.6° C leicht bewölkt
Sa, 08.05. 5:00 -1.4° C wolkig
Sa, 08.05. 4:30 -1.3° C wolkig
Ortszeit Relative Feuchte Sichtweite
Sa, 08.05. 8:00 86% 26 km
Sa, 08.05. 2:00 97% 9 km
Fr, 07.05. 20:00 48% >70 km
Fr, 07.05. 14:00 95% 12 km
Fr, 07.05. 8:00 85% 25 km
Fr, 07.05. 2:00 92% 26 km
Do, 06.05. 20:00 96% 7 km
Do, 06.05. 14:00 71% 60 km
Ortszeit Relative Feuchte Sichtweite
Sa, 08.05. 8:00 86% 26 km
Sa, 08.05. 7:50 86% -
Sa, 08.05. 7:40 87% -
Sa, 08.05. 7:30 91% 17 km
Sa, 08.05. 7:20 91% -
Sa, 08.05. 7:10 96% -
Sa, 08.05. 7:00 96% 16 km
Sa, 08.05. 6:30 97% 2.7 km
Sa, 08.05. 6:00 97% 13 km
Sa, 08.05. 5:30 96% 17 km
Sa, 08.05. 5:00 96% 16 km
Sa, 08.05. 4:30 96% 18 km
Ortszeit Niederschlagsmenge Niederschlagsart
Sa, 08.05. 8:00 0.0 l/m2 in 12 Std. -
Sa, 08.05. 2:00 0.0 l/m2 in 6 Std. -
Fr, 07.05. 20:00 3 l/m2 in 12 Std. Regen
Fr, 07.05. 14:00 3 l/m2 in 6 Std. Schnee, Regen
Fr, 07.05. 8:00 3 l/m2 in 12 Std. Regen
Fr, 07.05. 2:00 2 l/m2 in 6 Std. Regen
Do, 06.05. 20:00 5 l/m2 in 12 Std. Regen
Do, 06.05. 14:00 0.8 l/m2 in 6 Std. Regen
Ortszeit Niederschlagsmenge Niederschlagsart
Sa, 08.05. 8:00 0.0 l/m2 in 1 Std. -
Sa, 08.05. 7:50 keine Meldung -
Sa, 08.05. 7:40 keine Meldung -
Sa, 08.05. 7:30 0.0 l/m2 in 1 Std. -
Sa, 08.05. 7:20 keine Meldung -
Sa, 08.05. 7:10 keine Meldung -
Sa, 08.05. 7:00 0.0 l/m2 in 1 Std. -
Sa, 08.05. 6:30 0.0 l/m2 in 1 Std. -
Sa, 08.05. 6:00 0.0 l/m2 in 1 Std. -
Sa, 08.05. 5:30 0.0 l/m2 in 1 Std. -
Sa, 08.05. 5:00 0.0 l/m2 in 1 Std. -
Sa, 08.05. 4:30 0.0 l/m2 in 1 Std. -
Ortszeit Stärke Spitze Richtung
km/h Bft. km/h Grad Sektor
Sa, 08.05. 8:00 4 1 7 60° NO
Sa, 08.05. 2:00 2 1 28 310° NW
Fr, 07.05. 20:00 6 1 43 310° NW
Fr, 07.05. 14:00 6 1 50 300° NW
Fr, 07.05. 8:00 4 1 32 320° NW
Fr, 07.05. 2:00 7 2 22 300° NW
Do, 06.05. 20:00 4 1 25 60° NO
Do, 06.05. 14:00 11 2 32 240° SW
Ortszeit Stärke Spitze Richtung
km/h Bft. km/h Grad Sektor
Sa, 08.05. 8:00 4 1 7 60° NO
Sa, 08.05. 7:50 4 1 - 60° NO
Sa, 08.05. 7:40 4 1 - 60° NO
Sa, 08.05. 7:30 0 0 4 - -
Sa, 08.05. 7:20 0 0 - 60° NO
Sa, 08.05. 7:10 0 0 - 70° O
Sa, 08.05. 7:00 0 0 4 - -
Sa, 08.05. 6:30 4 1 4 240° SW
Sa, 08.05. 6:00 0 0 4 - -
Sa, 08.05. 5:30 0 0 4 - -
Sa, 08.05. 5:00 0 0 4 - -
Sa, 08.05. 4:30 4 1 4 220° SW
Ortszeit Untergrenze Bedeckung Gattung
total tief tief mittel hoch
Sa, 08.05. 8:00 10500 m 2/8 0/8 - - -
Sa, 08.05. 2:00 - 0/8 0/8 - - -
Fr, 07.05. 20:00 1410 m 5/8 5/8 - - -
Fr, 07.05. 14:00 210 m 7/8 7/8 - - -
Fr, 07.05. 8:00 390 m 7/8 7/8 - - -
Fr, 07.05. 2:00 210 m 8/8 8/8 - - -
Do, 06.05. 20:00 300 m 8/8 8/8 - - -
Do, 06.05. 14:00 660 m 8/8 8/8 - - -
Ortszeit Bedeckungsgrad in Achtel und Wolkenuntergrenze
Sa, 08.05. 8:00 2(10500m)
Sa, 08.05. 7:50 2(10500m)
Sa, 08.05. 7:40 keine Wolken
Sa, 08.05. 7:30 2(10500m)
Sa, 08.05. 7:20 2(10500m)
Sa, 08.05. 7:10 5(10500m)
Sa, 08.05. 7:00 1(<30m) 3(9000m) 7(10500m)
Sa, 08.05. 6:30 4(1800m) 7(8700m) 7(8700m)
Sa, 08.05. 6:00 2(1800m) 3(9000m) 6(9000m)
Sa, 08.05. 5:30 4(1800m) 5(9000m)
Sa, 08.05. 5:00 5(1800m)
Sa, 08.05. 4:30 5(1800m)
Ortszeit Luftdruck NN (hPa) Tendenz (hPa in 3 Std.)
Sa, 08.05. 8:00 1021 0,0
Sa, 08.05. 2:00 1022 + 0,2
Fr, 07.05. 20:00 1019 + 1,8
Fr, 07.05. 14:00 1016 + 2,9
Fr, 07.05. 8:00 1011 + 2,8
Fr, 07.05. 2:00 1007 + 1,8
Do, 06.05. 20:00 1005 - 1,9
Do, 06.05. 14:00 1009 - 1,3
Ortszeit Luftdruck NN (hPa) Tendenz (hPa in 3 Std.)
Sa, 08.05. 8:00 1021 0,0
Sa, 08.05. 7:50 1021 keine Meldung
Sa, 08.05. 7:40 1021 keine Meldung
Sa, 08.05. 7:30 1021 - 0,1
Sa, 08.05. 7:20 1021 keine Meldung
Sa, 08.05. 7:10 1021 keine Meldung
Sa, 08.05. 7:00 1022 - 0,4
Sa, 08.05. 6:30 1022 - 0,3
Sa, 08.05. 6:00 1022 - 0,4
Sa, 08.05. 5:30 1022 - 0,5
Sa, 08.05. 5:00 1022 - 0,4
Sa, 08.05. 4:30 1022 - 0,5
Ortszeit Schneehöhe (cm)
Sa, 08.05. 8:00 0
Sa, 08.05. 2:00 0
Fr, 07.05. 20:00 0
Fr, 07.05. 14:00 0
Fr, 07.05. 8:00 0
Fr, 07.05. 2:00 0
Do, 06.05. 20:00 0
Do, 06.05. 14:00 0
Ortszeit Schneehöhe (cm)
Sa, 08.05. 8:00 0
Sa, 08.05. 7:50 0
Sa, 08.05. 7:40 0
Sa, 08.05. 7:30 0
Sa, 08.05. 7:20 0
Sa, 08.05. 7:10 0
Sa, 08.05. 7:00 0
Sa, 08.05. 6:30 0
Sa, 08.05. 6:00 0
Sa, 08.05. 5:30 0
Sa, 08.05. 5:00 0
Sa, 08.05. 4:30 0
Link zu dieser Seite / Seite empfehlen

Das Wetter in ...